#timestamp,LO_Frequency,Hit,StdDev 
1504083615.2,286047001.1,N,1.2
1504083635.9,286046998.2,N,1.3
1504083655.7,286046998.8,N,1.3
1504083675.6,286046998.3,N,1.3
1504083695.4,286046999.4,N,1.3
1504083715.2,286046999.3,N,1.3
1504083735.1,286046998.7,N,1.3
1504083736.0,286046998.7,N,1.3
1504083755.8,286046999.2,N,1.3
1504083775.6,286046999.1,N,1.2
1504083795.5,286046998.8,N,1.2
1504083815.3,286046999.2,N,1.2
1504083865.2,286046999.5,E,nan
1504083875.1,286046999.4,N,0.0
1504083876.0,286046999.4,P,0.0
1504083895.8,286046999.1,P,0.1
1504083915.7,286046999.5,Y,0.0
1504083935.5,286046998.7,P,0.3
1504083955.3,286046998.3,P,0.4
1504083975.2,286046998.4,P,0.4
1504083995.9,286046998.9,N,0.4
1504084015.7,286046999.0,N,0.3
1504084035.6,286046998.8,Y,0.0
1504084055.4,286047000.6,P,0.9
1504084075.2,286046999.8,N,0.8
1504084095.1,286047000.4,N,0.7
1504084096.0,286047000.4,N,0.7
1504084115.8,286047002.8,Y,0.0
1504084135.6,286047000.0,P,0.0
1504084155.5,286046999.9,P,0.0
1504084175.3,286047000.2,P,0.1
1504084195.1,286047000.1,N,0.1
1504084215.9,286047000.1,N,0.1
1504084235.7,286047000.9,Y,0.0
1504084255.5,286046998.1,P,1.0
1504084275.4,286046999.0,N,0.8
1504084295.2,286046998.3,N,0.8
1504084315.0,286046998.5,N,0.7
1504084316.0,286046998.5,N,0.6
1504084335.8,286046998.3,N,0.6
1504084355.6,286046999.5,N,0.6
1504084375.5,286046998.1,Y,0.0
1504084395.3,286047000.0,P,0.6
1504084415.1,286047000.0,N,0.6
1504084435.9,286047002.1,P,1.2
1504084455.7,286047002.7,N,1.5
1504084475.5,286047002.2,N,1.4
1504084495.4,286047002.3,N,1.4
1504084515.2,286047002.3,N,1.4
1504084535.0,286047000.1,N,1.4
1504084535.9,286047000.1,N,1.3
1504084555.8,286047002.1,N,1.3
1504084575.6,286046999.8,N,1.3
1504084595.4,286046999.7,N,1.3
1504084615.3,286047000.4,N,1.3
1504084635.1,286046999.9,N,1.2
1504084636.0,286046999.9,N,1.2
1504084655.8,286046999.9,N,1.2
1504084675.7,286047002.6,N,1.2
1504084695.5,286047000.2,N,1.2
1504084715.3,286047000.9,N,1.2
1504084735.2,286047000.3,N,1.2
1504084755.9,286047000.3,N,1.1
1504084775.7,286047000.0,N,1.1
1504084795.6,286047000.4,N,1.1
1504084815.4,286047000.6,N,1.1
1504084835.2,286047000.8,N,1.1
1504084855.1,286047000.0,N,1.1
1504084856.0,286047000.0,N,1.0
1504084875.8,286047000.4,N,1.0
1504084895.6,286047000.3,N,1.0
1504084915.5,286047001.0,N,0.9
1504084935.3,286046999.9,N,1.0
1504084955.1,286047002.5,N,1.0
1504084975.9,286047000.2,N,1.0
1504084995.7,286047002.7,N,1.0
1504085015.5,286047000.7,N,0.9
1504085035.4,286047000.9,N,0.9
1504085055.2,286047001.1,N,0.8
1504085075.0,286047000.2,N,0.8
1504085075.9,286047000.2,N,0.8
1504085095.8,286047000.0,N,0.8
1504085115.6,286047000.3,N,0.8
1504085135.4,286047000.5,N,0.8
1504085155.3,286047001.2,N,0.8
1504085175.1,286047000.5,N,0.8
1504085176.0,286047000.5,N,0.7
1504085195.8,286046999.9,N,0.7
1504085215.7,286047000.6,N,0.6
1504085235.5,286047000.2,N,0.6
1504085255.3,286047000.9,N,0.6
1504085275.2,286047002.1,Y,0.0
1504085295.9,286047001.9,P,0.7
1504085315.7,286047002.2,P,0.7
1504085335.6,286047002.2,P,0.7
1504085355.4,286047001.7,N,0.6
1504085375.2,286047002.2,Y,0.0
1504085395.1,286046998.1,P,1.8
1504085396.0,286046998.1,N,1.7
1504085415.8,286047000.9,N,1.6
1504085435.6,286047000.0,N,1.5
1504085455.5,286046999.7,N,1.3
1504085475.3,286046999.7,N,1.2
1504085495.1,286047001.9,N,1.4
1504085515.9,286047001.9,N,1.4
1504085535.7,286047001.5,N,1.4
1504085555.5,286047001.4,N,1.4
1504085575.4,286047001.3,N,1.3
1504085595.2,286047001.7,N,1.3
1504085615.0,286047001.9,N,1.3
1504085615.9,286047001.9,N,1.3
1504085635.8,286047004.2,Y,0.0
1504085655.6,286047001.7,P,0.5
1504085675.4,286047002.1,P,0.6
1504085695.3,286047002.0,P,0.5
1504085715.1,286047002.0,Y,0.0
1504085735.8,286046999.9,P,0.9
1504085755.7,286047002.5,N,1.1
1504085775.5,286047000.3,N,1.0
1504085795.3,286046999.7,N,1.1
1504085815.2,286046999.7,N,1.1
1504085835.0,286047002.8,N,1.3
1504085835.9,286047002.8,N,1.3
1504085855.7,286046999.8,N,1.3
1504085875.6,286047002.4,N,1.3
1504085895.4,286047002.3,N,1.3
1504085915.2,286047002.6,N,1.3
1504085935.1,286047001.6,N,1.2
1504085936.0,286047001.6,N,1.2
1504085955.8,286047001.4,N,1.2
1504085975.7,286047002.2,N,1.1
1504085995.5,286047002.1,N,1.1
1504086015.3,286047002.4,N,1.1
1504086035.2,286047002.2,N,1.1
1504086055.9,286047004.0,Y,0.0
1504086075.7,286047002.7,P,0.6
1504086095.6,286047000.2,N,1.0
1504086115.4,286047002.3,N,1.0
1504086135.2,286047002.2,N,0.9
1504086155.1,286047001.6,N,0.8
1504086156.0,286047001.6,N,0.7
1504086175.8,286047002.0,N,0.7
1504086195.6,286047001.8,N,0.7
1504086215.5,286047002.5,Y,0.0
1504086235.3,286047000.4,P,0.7
1504086255.1,286047000.9,N,0.6
1504086275.9,286046998.1,P,1.4
1504086295.7,286046998.6,N,1.4
1504086315.5,286046998.5,N,1.4
1504086335.4,286046998.6,N,1.3
1504086355.2,286046998.5,N,1.3
1504086375.0,286047000.8,N,1.3
1504086375.9,286047000.8,N,1.3
1504086395.8,286047001.0,N,1.3
1504086415.6,286047001.0,N,1.3
1504086435.4,286047000.0,N,1.2
1504086455.3,286047000.6,N,1.2
1504086475.1,286047000.7,N,1.2
1504086495.8,286047000.2,N,1.1
1504086515.7,286046999.9,N,1.1
1504086535.5,286047000.4,N,1.1
1504086555.3,286047001.2,N,1.1
1504086575.2,286047000.9,N,1.1
1504086595.0,286047000.1,N,1.0
1504086595.9,286047000.1,N,1.0
1504086615.7,286047000.5,N,1.0
1504086635.6,286047000.5,N,1.0
1504086655.4,286047000.0,N,1.0
1504086675.2,286047000.8,N,0.9
1504086695.1,286047000.5,N,0.9
1504086696.0,286047000.5,N,0.9
1504086715.8,286047000.0,N,0.9
1504086735.6,286046999.7,N,0.9
1504086755.5,286047002.8,Y,0.0
1504086775.3,286046999.9,P,0.1
1504086795.1,286046999.8,N,0.2
1504086815.9,286046999.7,N,0.2
1504086835.7,286046999.7,N,0.2
1504086855.6,286047000.2,N,0.2
1504086875.4,286047002.8,Y,0.0
1504086895.2,286046999.7,P,0.1
1504086915.1,286047002.7,P,1.4
1504086916.0,286047002.7,N,1.4
1504086935.8,286047002.8,N,1.4
1504086955.6,286047000.5,N,1.4
1504086975.5,286047001.2,N,1.3
1504086995.3,286046999.7,N,1.3
1504087015.1,286046999.9,N,1.3
1504087035.9,286046999.8,N,1.3
1504087055.7,286047000.3,N,1.2
1504087075.5,286046999.7,N,1.2
1504087095.4,286047000.2,N,1.2
1504087115.2,286047000.2,N,1.1
1504087135.0,286047000.4,N,1.1
1504087135.9,286047000.4,N,1.1
1504087155.8,286046999.8,N,1.1
1504087175.6,286047002.7,N,1.1
1504087195.4,286047002.7,N,1.2
